Time,TemperatureF,DewpointF,PressureIn,WindDirection,WindDirectionDegrees,WindSpeedMPH,WindSpeedGustMPH,Humidity,HourlyPrecipIn,Conditions,Clouds,dailyrainin,SolarRadiationWatts/m^2,SoftwareType,DateUTC
2013-05-01 00:21:00,32.0,22.0,-100.00,NE,34,0.0,2.0,66,0.00,,,0.00,0.000000,,2013-05-01 08:21:00,
2013-05-01 00:31:00,32.0,22.0,-100.00,NE,34,0.0,2.0,66,0.00,,,0.00,0.000000,,2013-05-01 08:31:00,
2013-05-01 00:42:00,32.0,22.0,-100.00,NE,34,0.0,2.0,66,0.00,,,0.00,0.000000,,2013-05-01 08:42:00,
2013-05-01 00:52:00,32.0,22.0,-100.00,NE,34,0.0,2.0,66,0.00,,,0.00,0.000000,,2013-05-01 08:52:00,
2013-05-01 01:21:00,30.0,22.0,-100.00,NE,47,0.0,1.0,73,0.00,,,0.00,0.000000,,2013-05-01 09:21:00,
2013-05-01 01:33:00,30.0,22.0,-100.00,NE,47,0.0,1.0,73,0.00,,,0.00,0.000000,,2013-05-01 09:33:00,
2013-05-01 01:42:00,30.0,22.0,-100.00,NE,47,0.0,1.0,73,0.00,,,0.00,0.000000,,2013-05-01 09:42:00,
2013-05-01 01:52:00,30.0,22.0,-100.00,NE,47,0.0,1.0,73,0.00,,,0.00,0.000000,,2013-05-01 09:52:00,
2013-05-01 02:22:00,28.0,21.0,-100.00,East,79,0.0,1.0,76,0.00,,,0.00,0.000000,,2013-05-01 10:22:00,
2013-05-01 02:33:00,28.0,21.0,-100.00,East,79,0.0,1.0,76,0.00,,,0.00,0.000000,,2013-05-01 10:33:00,
2013-05-01 02:42:00,28.0,21.0,-100.00,East,79,0.0,1.0,76,0.00,,,0.00,0.000000,,2013-05-01 10:42:00,
2013-05-01 02:52:00,28.0,21.0,-100.00,East,79,0.0,1.0,76,0.00,,,0.00,0.000000,,2013-05-01 10:52:00,
2013-05-01 03:22:00,29.0,24.0,-100.00,SE,135,1.0,2.0,80,0.00,,,0.00,0.000000,,2013-05-01 11:22:00,
2013-05-01 03:32:00,29.0,24.0,-100.00,SE,135,1.0,2.0,80,0.00,,,0.00,0.000000,,2013-05-01 11:32:00,
2013-05-01 03:42:00,29.0,24.0,-100.00,SE,135,1.0,2.0,80,0.00,,,0.00,0.000000,,2013-05-01 11:42:00,
2013-05-01 03:51:00,29.0,24.0,-100.00,SE,135,1.0,2.0,80,0.00,,,0.00,0.000000,,2013-05-01 11:51:00,
2013-05-01 04:21:00,28.0,23.0,-100.00,SSW,203,1.0,3.0,81,0.00,,,0.00,0.000000,,2013-05-01 12:21:00,
2013-05-01 04:31:00,28.0,23.0,-100.00,SSW,203,1.0,3.0,81,0.00,,,0.00,0.000000,,2013-05-01 12:31:00,
2013-05-01 04:41:00,28.0,23.0,-100.00,SSW,203,1.0,3.0,81,0.00,,,0.00,0.000000,,2013-05-01 12:41:00,
2013-05-01 04:51:00,28.0,23.0,-100.00,SSW,203,1.0,3.0,81,0.00,,,0.00,0.000000,,2013-05-01 12:51:00,
2013-05-01 05:21:00,28.0,23.0,-100.00,WNW,293,0.0,3.0,80,0.00,,,-99.99,0.000000,,2013-05-01 13:21:00,
2013-05-01 05:31:00,28.0,23.0,-100.00,WNW,293,0.0,3.0,80,0.00,,,-99.99,0.000000,,2013-05-01 13:31:00,
2013-05-01 05:42:00,28.0,23.0,-100.00,WNW,293,0.0,3.0,80,0.00,,,-99.99,0.000000,,2013-05-01 13:42:00,
2013-05-01 05:52:00,28.0,23.0,-100.00,WNW,293,0.0,3.0,80,0.00,,,-99.99,0.000000,,2013-05-01 13:52:00,
2013-05-01 06:21:00,28.0,23.0,-100.00,ENE,73,0.0,3.0,81,0.00,,,-99.99,1.000000,,2013-05-01 14:21:00,
2013-05-01 06:31:00,28.0,23.0,-100.00,ENE,73,0.0,3.0,81,0.00,,,-99.99,1.000000,,2013-05-01 14:31:00,
2013-05-01 06:41:00,28.0,23.0,-100.00,ENE,73,0.0,3.0,81,0.00,,,-99.99,1.000000,,2013-05-01 14:41:00,
2013-05-01 06:51:00,28.0,23.0,-100.00,ENE,73,0.0,3.0,81,0.00,,,-99.99,1.000000,,2013-05-01 14:51:00,
2013-05-01 07:21:00,29.0,24.0,-100.00,South,178,0.0,1.0,82,0.00,,,0.00,14.000000,,2013-05-01 15:21:00,
2013-05-01 07:33:00,29.0,24.0,-100.00,South,178,0.0,1.0,82,0.00,,,0.00,14.000000,,2013-05-01 15:33:00,
2013-05-01 07:42:00,29.0,24.0,-100.00,South,178,0.0,1.0,82,0.00,,,0.00,14.000000,,2013-05-01 15:42:00,
2013-05-01 07:53:00,29.0,24.0,-100.00,South,178,0.0,1.0,82,0.00,,,0.00,14.000000,,2013-05-01 15:53:00,
2013-05-01 08:22:00,34.0,27.0,-100.00,SSW,210,0.0,2.0,76,0.00,,,0.00,59.000000,,2013-05-01 16:22:00,
2013-05-01 08:31:00,34.0,27.0,-100.00,SSW,210,0.0,2.0,76,0.00,,,0.00,59.000000,,2013-05-01 16:31:00,
2013-05-01 08:42:00,34.0,27.0,-100.00,SSW,210,0.0,2.0,76,0.00,,,0.00,59.000000,,2013-05-01 16:42:00,
2013-05-01 08:53:00,34.0,27.0,-100.00,SSW,210,0.0,2.0,76,0.00,,,0.00,59.000000,,2013-05-01 16:53:00,
2013-05-01 09:21:00,36.0,26.0,-100.00,SSW,213,0.0,3.0,66,0.00,,,0.00,84.000000,,2013-05-01 17:21:00,
2013-05-01 09:31:00,36.0,26.0,-100.00,SSW,213,0.0,3.0,66,0.00,,,0.00,84.000000,,2013-05-01 17:31:00,
2013-05-01 09:42:00,36.0,26.0,-100.00,SSW,213,0.0,3.0,66,0.00,,,0.00,84.000000,,2013-05-01 17:42:00,
2013-05-01 09:52:00,36.0,26.0,-100.00,SSW,213,0.0,3.0,66,0.00,,,0.00,84.000000,,2013-05-01 17:52:00,
2013-05-01 10:22:00,41.0,27.0,-100.00,SW,230,1.0,4.0,58,0.00,,,0.00,155.000000,,2013-05-01 18:22:00,
2013-05-01 10:32:00,41.0,27.0,-100.00,SW,230,1.0,4.0,58,0.00,,,0.00,155.000000,,2013-05-01 18:32:00,
2013-05-01 10:41:00,41.0,27.0,-100.00,SW,230,1.0,4.0,58,0.00,,,0.00,155.000000,,2013-05-01 18:41:00,
2013-05-01 10:52:00,41.0,27.0,-100.00,SW,230,1.0,4.0,58,0.00,,,0.00,155.000000,,2013-05-01 18:52:00,
2013-05-01 11:22:00,45.0,24.0,-100.00,West,273,2.0,6.0,44,0.00,,,0.00,263.000000,,2013-05-01 19:22:00,
2013-05-01 11:32:00,45.0,24.0,-100.00,West,273,2.0,6.0,44,0.00,,,0.00,263.000000,,2013-05-01 19:32:00,
2013-05-01 11:42:00,45.0,24.0,-100.00,West,273,2.0,6.0,44,0.00,,,0.00,263.000000,,2013-05-01 19:42:00,
2013-05-01 11:52:00,45.0,24.0,-100.00,West,273,2.0,6.0,44,0.00,,,0.00,263.000000,,2013-05-01 19:52:00,
2013-05-01 12:21:00,47.0,25.0,-100.00,West,266,1.0,6.0,41,0.00,,,-99.99,481.000000,,2013-05-01 20:21:00,
2013-05-01 12:31:00,47.0,25.0,-100.00,West,266,1.0,6.0,41,0.00,,,-99.99,481.000000,,2013-05-01 20:31:00,
2013-05-01 12:42:00,47.0,25.0,-100.00,West,266,1.0,6.0,41,0.00,,,-99.99,481.000000,,2013-05-01 20:42:00,
2013-05-01 12:52:00,47.0,25.0,-100.00,West,266,1.0,6.0,41,0.00,,,-99.99,481.000000,,2013-05-01 20:52:00,
2013-05-01 13:22:00,51.0,25.0,-100.00,WNW,293,2.0,6.0,36,0.00,,,0.00,627.000000,,2013-05-01 21:22:00,
2013-05-01 13:32:00,51.0,25.0,-100.00,WNW,293,2.0,6.0,36,0.00,,,0.00,627.000000,,2013-05-01 21:32:00,
2013-05-01 13:43:00,51.0,25.0,-100.00,WNW,293,2.0,6.0,36,0.00,,,0.00,627.000000,,2013-05-01 21:43:00,
2013-05-01 13:52:00,51.0,25.0,-100.00,WNW,293,2.0,6.0,36,0.00,,,0.00,627.000000,,2013-05-01 21:52:00,
2013-05-01 14:23:00,49.0,21.0,-100.00,NNW,348,4.0,10.0,33,0.00,,,0.00,576.000000,,2013-05-01 22:23:00,
2013-05-01 14:33:00,49.0,21.0,-100.00,NNW,348,4.0,10.0,33,0.00,,,0.00,576.000000,,2013-05-01 22:33:00,
2013-05-01 14:42:00,49.0,21.0,-100.00,NNW,348,4.0,10.0,33,0.00,,,0.00,576.000000,,2013-05-01 22:42:00,
2013-05-01 14:52:00,49.0,21.0,-100.00,NNW,348,4.0,10.0,33,0.00,,,0.00,576.000000,,2013-05-01 22:52:00,
2013-05-01 15:21:00,48.0,23.0,-100.00,North,356,3.0,12.0,37,0.00,,,0.00,409.000000,,2013-05-01 23:21:00,
2013-05-01 15:32:00,48.0,23.0,-100.00,North,356,3.0,12.0,37,0.00,,,0.00,409.000000,,2013-05-01 23:32:00,
2013-05-01 15:42:00,48.0,23.0,-100.00,North,356,3.0,12.0,37,0.00,,,0.00,409.000000,,2013-05-01 23:42:00,
2013-05-01 15:52:00,48.0,23.0,-100.00,North,356,3.0,12.0,37,0.00,,,0.00,409.000000,,2013-05-01 23:52:00,
2013-05-01 16:21:00,49.0,24.0,-100.00,North,7,4.0,9.0,37,0.00,,,0.00,400.000000,,2013-05-02 00:21:00,
2013-05-01 16:32:00,49.0,24.0,-100.00,North,7,4.0,9.0,37,0.00,,,0.00,400.000000,,2013-05-02 00:32:00,
2013-05-01 16:41:00,49.0,24.0,-100.00,North,7,4.0,9.0,37,0.00,,,0.00,400.000000,,2013-05-02 00:41:00,
2013-05-01 16:52:00,49.0,24.0,-100.00,North,7,4.0,9.0,37,0.00,,,0.00,400.000000,,2013-05-02 00:52:00,
2013-05-01 17:21:00,47.0,22.0,-100.00,North,354,5.0,11.0,37,0.00,,,0.00,432.000000,,2013-05-02 01:21:00,
2013-05-01 17:32:00,47.0,22.0,-100.00,North,354,5.0,11.0,37,0.00,,,0.00,432.000000,,2013-05-02 01:32:00,
2013-05-01 17:42:00,47.0,22.0,-100.00,North,354,5.0,11.0,37,0.00,,,0.00,432.000000,,2013-05-02 01:42:00,
2013-05-01 17:52:00,47.0,22.0,-100.00,North,354,5.0,11.0,37,0.00,,,0.00,432.000000,,2013-05-02 01:52:00,
2013-05-01 18:21:00,45.0,22.0,-100.00,North,10,3.0,10.0,40,0.00,,,0.00,214.000000,,2013-05-02 02:21:00,
2013-05-01 18:32:00,45.0,22.0,-100.00,North,10,3.0,10.0,40,0.00,,,0.00,214.000000,,2013-05-02 02:32:00,
2013-05-01 18:42:00,45.0,22.0,-100.00,North,10,3.0,10.0,40,0.00,,,0.00,214.000000,,2013-05-02 02:42:00,
2013-05-01 18:51:00,45.0,22.0,-100.00,North,10,3.0,10.0,40,0.00,,,0.00,214.000000,,2013-05-02 02:51:00,
2013-05-01 19:22:00,45.0,23.0,-100.00,NNE,20,4.0,8.0,42,0.00,,,0.00,172.000000,,2013-05-02 03:22:00,
2013-05-01 19:32:00,45.0,23.0,-100.00,NNE,20,4.0,8.0,42,0.00,,,0.00,172.000000,,2013-05-02 03:32:00,
2013-05-01 19:42:00,45.0,23.0,-100.00,NNE,20,4.0,8.0,42,0.00,,,0.00,172.000000,,2013-05-02 03:42:00,
2013-05-01 19:52:00,45.0,23.0,-100.00,NNE,20,4.0,8.0,42,0.00,,,0.00,172.000000,,2013-05-02 03:52:00,
2013-05-01 20:23:00,44.0,22.0,-100.00,NNE,15,3.0,8.0,42,0.00,,,0.00,122.000000,,2013-05-02 04:23:00,
2013-05-01 20:33:00,44.0,22.0,-100.00,NNE,15,3.0,8.0,42,0.00,,,0.00,122.000000,,2013-05-02 04:33:00,
2013-05-01 20:42:00,44.0,22.0,-100.00,NNE,15,3.0,8.0,42,0.00,,,0.00,122.000000,,2013-05-02 04:42:00,
2013-05-01 20:52:00,44.0,22.0,-100.00,NNE,15,3.0,8.0,42,0.00,,,0.00,122.000000,,2013-05-02 04:52:00,
2013-05-01 21:22:00,43.0,23.0,-100.00,NNE,16,1.0,6.0,44,0.00,,,0.00,70.000000,,2013-05-02 05:22:00,
2013-05-01 21:32:00,43.0,23.0,-100.00,NNE,16,1.0,6.0,44,0.00,,,0.00,70.000000,,2013-05-02 05:32:00,
2013-05-01 21:42:00,43.0,23.0,-100.00,NNE,16,1.0,6.0,44,0.00,,,0.00,70.000000,,2013-05-02 05:42:00,
2013-05-01 21:51:00,43.0,23.0,-100.00,NNE,16,1.0,6.0,44,0.00,,,0.00,70.000000,,2013-05-02 05:51:00,
2013-05-01 22:21:00,37.0,22.0,-100.00,NE,51,0.0,4.0,55,0.00,,,0.00,17.000000,,2013-05-02 06:21:00,
2013-05-01 22:31:00,37.0,22.0,-100.00,NE,51,0.0,4.0,55,0.00,,,0.00,17.000000,,2013-05-02 06:31:00,
2013-05-01 22:42:00,37.0,22.0,-100.00,NE,51,0.0,4.0,55,0.00,,,0.00,17.000000,,2013-05-02 06:42:00,
2013-05-01 22:52:00,37.0,22.0,-100.00,NE,51,0.0,4.0,55,0.00,,,0.00,17.000000,,2013-05-02 06:52:00,
2013-05-01 23:21:00,34.0,23.0,-100.00,ESE,116,0.0,1.0,63,0.00,,,0.00,1.000000,,2013-05-02 07:21:00,
2013-05-01 23:31:00,34.0,23.0,-100.00,ESE,116,0.0,1.0,63,0.00,,,0.00,1.000000,,2013-05-02 07:31:00,
2013-05-01 23:41:00,34.0,23.0,-100.00,ESE,116,0.0,1.0,63,0.00,,,0.00,1.000000,,2013-05-02 07:41:00,
2013-05-01 23:52:00,34.0,23.0,-100.00,ESE,116,0.0,1.0,63,0.00,,,0.00,1.000000,,2013-05-02 07:52:00,